Location: ????????
(48.4751°N, 37.6926°E)
Time: 19:35:58
(UTC+00:00)

Cosmos 2058 Rocket - Pass Details

Date: 20 January 2021
Orbit: 611 x 639 km, 82.5° (Epoch: 02 March)

Event Time Altitude Azimuth Distance (km) Brightness Sun altitude
Rises 15:43:54 0° 349° (N) 2,942 6.5 -15.4°
Reaches altitude 10° 15:46:09 10° 349° (N) 2,032 5.7 -15.7°
Maximum altitude 15:50:40 86° 264° (W) 646 3.1 -16.5°
Drops below altitude 10° 15:55:11 10° 174° (S) 2,024 5.8 -17.2°
Sets 15:57:24 0° 174° (S) 2,929 6.6 -17.6°
